Flag for France

Past Weather in Troyes, Grand-Est, France — Yesterday and Last 2 Weeks

Currently: 37 °F. Chilly. (Weather station: Troyes Airport, France). See more current weather

Past Weather in Troyes — Graph

°F

Troyes Temperature Yesterday

Maximum temperature yesterday: 45 °F (at 10:00 pm)
Minimum temperature yesterday: 41 °F (at 12:00 am)
Average temperature yesterday: 42 °F

High & Low Weather Summary for the Past Weeks

 TemperatureHumidityPressure
High57 °F (Nov 26, 2:30 pm)100% (Nov 20, 2:00 am)30.63 "Hg (Nov 20, 2:00 am)
Low21 °F (Nov 30, 6:30 am)58% (Nov 21, 2:00 pm)29.00 "Hg (Dec 4, 12:30 am)
Average39 °F86%30.12 "Hg
* Reported Nov 19 8:00 pm — Dec 4 8:00 pm, Troyes. Weather by CustomWeather, © 2020

Note: Actual official high and low records may vary slightly from our data, if they occured in-between our weather recording intervals... More about our weather records

Troyes Weather History for the Previous 24 Hours

Scroll right to see more
 ConditionsComfort  
Time TempWeatherWind HumidityBarometerVisibility
8:00 pm
Fri, Dec 4
32 °FClear.3 mph93%29.18 "Hg10 mi
7:30 pm32 °FClear.3 mph93%29.18 "Hg10 mi
7:00 pm34 °FClear.5 mph87%29.18 "Hg10 mi
6:30 pm39 °FClear.8 mph81%29.18 "Hg10 mi
6:00 pm41 °FClear.8 mph76%29.18 "Hg10 mi
5:30 pm41 °FClear.8 mph76%29.15 "Hg10 mi
5:00 pm41 °FClear.7 mph76%29.18 "Hg10 mi
4:30 pm43 °FSunny.10 mph76%29.18 "Hg10 mi
4:00 pm43 °FSunny.12 mph81%29.18 "Hg10 mi
3:30 pm43 °FSunny.13 mph76%29.15 "Hg10 mi
3:00 pm45 °FSunny.13 mph71%29.15 "Hg10 mi
2:30 pm45 °FOvercast.12 mph71%29.15 "HgN/A
2:00 pm43 °FPartly sunny.14 mph76%29.15 "HgN/A
1:30 pm43 °FCloudy.12 mph76%29.15 "HgN/A
1:00 pm43 °FCloudy.12 mph81%29.15 "HgN/A
12:30 pm43 °FPartly sunny.9 mph81%29.12 "HgN/A
12:00 pm43 °FBroken clouds.10 mph81%29.15 "HgN/A
11:30 am43 °FMostly cloudy.9 mph81%29.15 "HgN/A
11:00 am43 °FMostly cloudy.9 mph81%29.15 "HgN/A
10:30 am43 °FOvercast.7 mph81%29.12 "HgN/A
10:00 am43 °FMostly cloudy.7 mph81%29.12 "HgN/A
9:30 am43 °FOvercast.6 mph81%29.12 "HgN/A
9:00 am43 °FOvercast.7 mph81%29.09 "HgN/A
8:30 am41 °FMostly cloudy.8 mph87%29.09 "HgN/A
8:00 am43 °FPassing clouds.9 mph81%29.06 "HgN/A
7:30 am41 °FPassing clouds.10 mph87%29.06 "HgN/A
7:00 am43 °FOvercast.13 mph81%29.06 "HgN/A
6:30 am41 °FMostly cloudy.17 mph87%29.03 "HgN/A
6:00 am43 °FLight rain. Partly cloudy.21 mph81%29.06 "HgN/A
5:30 am43 °FLight rain. Passing clouds.23 mph81%29.03 "HgN/A
5:00 am45 °FMostly cloudy.23 mph81%29.03 "HgN/A
4:30 am45 °FMostly cloudy.22 mph81%29.03 "HgN/A
4:00 am45 °FOvercast.24 mph81%29.03 "HgN/A
3:30 am45 °FOvercast.24 mph81%29.03 "HgN/A
3:00 am45 °FOvercast.25 mph81%29.03 "HgN/A
2:30 am46 °FLight rain. Mostly cloudy.23 mph82%29.00 "HgN/A
2:00 am46 °FMostly cloudy.28 mph82%29.00 "HgN/A
1:30 am46 °FRain. Fog.30 mph82%29.00 "Hg3 mi
1:00 am46 °FRain. Mostly cloudy.25 mph82%29.00 "Hg5 mi
12:30 am46 °FLight rain. Overcast.17 mph82%29.00 "HgN/A
12:00 am45 °FLight rain. Overcast.16 mph87%29.03 "HgN/A
11:30 pm
Thu, Dec 3
45 °FLight rain. Overcast.16 mph87%29.03 "HgN/A
11:00 pm45 °FLight rain. Mostly cloudy.14 mph87%29.06 "HgN/A
10:30 pm45 °FLight rain. Mostly cloudy.15 mph87%29.09 "HgN/A
10:00 pm45 °FLight rain. Overcast.14 mph87%29.12 "HgN/A
9:30 pm43 °FLight rain. Mostly cloudy.14 mph93%29.12 "HgN/A
9:00 pm43 °FLight rain. Mostly cloudy.14 mph93%29.15 "HgN/A
Weather by CustomWeather, © 2020

See weather overview